Hourly Weather Roundup
Issued by NWS Central Illinois

Home | Current Version | Previous Version | Text Only | Print | Product List | Glossary On
Versions: 1 2 3 4 5 6 7 8 9 10 11 12 13 14 15 16 17 18 19 20 21 22 23 24 25 26 27 28 29 30 31 32 33 34 35 36 37 38 39 40 41 42 43 44 45 46 47 48 49 50
000
NZUS43 KILX 270310
HWRILX

AREA WEATHER ROUNDUP
NATIONAL WEATHER SERVICE, LINCOLN IL
1000 PM CDT TUE MAY 26 2015


CITY           SKY/WX    TMP DP  RH WIND       PRES   REMARKS
BLOOMINGTON    CLEAR     69  64  84 S15       29.92R
CHAMPAIGN      CLEAR     67  61  81 S10       29.95R
DANVILLE       CLEAR     68  61  78 SW9       29.93R
DECATUR        PTCLDY    70  61  73 S13       29.94R
EFFINGHAM      CLEAR     69  56  64 S5        30.01R
FLORA          CLEAR     69  61  76 S9        30.01R
GALESBURG      CLOUDY    66  62  87 SW8       29.85R
JACKSONVILLE   MOCLDY    73  62  67 S10       29.91R
LACON          MOCLDY    69  60  72 S7        29.85R
LAWRENCEVILLE  CLEAR     70  60  70 SW9       30.02R
LITCHFIELD     CLEAR     69  60  75 S12       29.96R
$$


CITY           SKY/WX    TMP DP  RH WIND       PRES   REMARKS
LINCOLN        PTCLDY    71  62  75 S9        29.89R
MACOMB         LGT RAIN  69  64  83 W8        29.88R
MATTOON        CLEAR     69  60  73 S7        29.97R
MT CARMEL AP   CLEAR     72  59  64 SW8       30.02R
OLNEY-NOBLE AP CLEAR     68  63  83 S7        30.02R
PARIS          CLEAR     69  59  71 S8        29.99R
PEORIA         MOCLDY    73  60  63 S15       29.86R
PONTIAC        PTCLDY    70  65  82 S14G21    29.89R
RANTOUL        CLEAR     70  63  78 S10       29.94R
ROBINSON       CLEAR     70  60  70 SW10      30.01R
SPRINGFIELD    PTCLDY    73  61  65 S14       29.91R
TAYLORVILLE    CLEAR     68  63  83 S12       29.95R
$$

...REGIONAL REPORTS...


CITY           SKY/WX    TMP DP  RH WIND       PRES   REMARKS
CHICAGO O`HARE PTCLDY    67  60  78 S8        29.84R
KANKAKEE       CLEAR     67  63  84 S10G18    29.91R
MOLINE         PTCLDY    65  61  87 SW5       29.82R
MOUNT VERNON   CLEAR     66  59  77 S6        30.03R
PITTSFIELD     PTCLDY    72  61  68 S9        29.92R
QUINCY         CLEAR     70  61  73 SW9       29.89R
ROCKFORD       CLOUDY    67  60  78 SW13      29.84R
$$


CITY           SKY/WX    TMP DP  RH WIND       PRES   REMARKS
BURLINGTON     PTCLDY    66  63  90 SW7       29.85R
CEDAR RAPIDS   MOCLDY    64  63  96 S3        29.80R
DES MOINES     MOCLDY    63  59  87 W7        29.85R
KIRKSVILLE     MOCLDY    65  62  90 SW5       29.91R
OTTUMWA        CLEAR     63  61  93 W9        29.85R
ST LOUIS       PTCLDY    74  60  61 S9        29.96R
$$


CITY           SKY/WX    TMP DP  RH WIND       PRES   REMARKS
TERRE HAUTE    CLEAR     70  59  68 S9        29.99R
EVANSVILLE     CLEAR     69  62  78 SW8       30.05R
INDIANAPOLIS   MOCLDY    69  57  65 SW10      29.98R
LAFAYETTE      MOCLDY    68  60  75 SW8       29.95R
MADISON        PTCLDY    64  57  78 SW7       29.77R
MILWAUKEE      PTCLDY    67  56  67 SW14G22   29.78R
$$




USA.gov is the U.S. government's official web portal to all federal, state and local government web resources and services.